Wreay, United Kingdom

11:11 PM BST on July 19, 2019 (GMT +0100)
Wreay

Weather History for 03222 - December, 2008

Change the Weather History Date:

Friday, December 12, 2008

  Actual Average Record
Temperature  
Mean Temperature 39 °F -  
Max Temperature 41 °F 42 °F - ()
Min Temperature 37 °F 36 °F - ()
Degree Days  
Heating Degree Days 26    
Moisture  
Dew Point 36 °F    
Average Humidity 89    
Maximum Humidity 93    
Minimum Humidity 81    
Precipitation  
Precipitation 0.00 in - - ()
Sea Level Pressure  
Sea Level Pressure 29.55 in    
Wind  
Wind Speed 10 mph ()    
Max Wind Speed 17 mph    
Max Gust Speed 31 mph    
Visibility 6.0 miles    
Events      
T = Trace of Precipitation, MM = Missing Value Source: Averaged Metar Reports

Daily Weather History Graph

Daily Weather History Graph

Search for Another Location

Airport or City:

Astronomy

Dec. 12, 2008 Rise Set
Actual Time 8:27 AM GMT 3:43 PM GMT
Civil Twilight 7:42 AM GMT 4:28 PM GMT
Nautical Twilight 6:55 AM GMT 5:16 PM GMT
Astronomical Twilight 6:10 AM GMT 6:00 PM GMT
Moon 2:55 PM GMT (12/12) 8:45 AM GMT (12/12)
Length of Visible Light 8h 46m
Length of Day
7h 16m
Full, 100% of the Moon is Illuminated
Dec 12
Full
Dec 12
Full
Dec 19
Last Quarter
Dec 27
New
Jan 4
First Quarter

Hourly Weather History & Observations

Time (GMT) Temp. Windchill Dew Point Humidity Pressure Visibility Wind Dir Wind Speed Gust Speed Precip Events Conditions
8:50 AM 37.4 °F 30.3 °F 32.0 °F 81% 29.71 in 6.2 mi South 10.4 mph - N/A   Mostly Cloudy
9:20 AM 37.4 °F 30.3 °F 33.8 °F 87% 29.71 in 6.2 mi South 10.4 mph - N/A   Mostly Cloudy
9:50 AM 37.4 °F 30.3 °F 33.8 °F 87% 29.68 in 6.2 mi South 10.4 mph - N/A   Mostly Cloudy
10:20 AM 37.4 °F 29.3 °F 35.6 °F 93% 29.68 in 6.2 mi South 12.7 mph - N/A   Mostly Cloudy
10:50 AM 37.4 °F 29.3 °F 35.6 °F 93% 29.68 in 6.2 mi South 12.7 mph - N/A   Mostly Cloudy
11:20 AM 37.4 °F 29.8 °F 35.6 °F 93% 29.68 in 6.2 mi South 11.5 mph - N/A   Scattered Clouds
11:50 AM 37.4 °F 30.3 °F 35.6 °F 93% 29.65 in 6.2 mi South 10.4 mph - N/A   Scattered Clouds
12:20 PM 39.2 °F 33.0 °F 35.6 °F 87% 29.62 in 6.2 mi South 9.2 mph - N/A   Scattered Clouds
12:50 PM 39.2 °F 32.5 °F 37.4 °F 93% 29.62 in 5.6 mi South 10.4 mph - N/A   Scattered Clouds
1:20 PM 39.2 °F 32.5 °F 37.4 °F 93% 29.59 in 5.6 mi South 10.4 mph - N/A   Scattered Clouds
1:50 PM 39.2 °F 33.0 °F 37.4 °F 93% 29.56 in 5.6 mi South 9.2 mph - N/A   Scattered Clouds
2:20 PM 41.0 °F 34.7 °F 37.4 °F 87% 29.53 in 5.6 mi South 10.4 mph - N/A   Mostly Cloudy
2:50 PM 41.0 °F 34.7 °F 37.4 °F 87% 29.50 in 5.6 mi South 10.4 mph 23.0 mph N/A   Mostly Cloudy
3:20 PM 41.0 °F 32.8 °F 37.4 °F 87% 29.47 in 5.6 mi South 16.1 mph - N/A   Mostly Cloudy
4:20 PM 41.0 °F 32.5 °F 37.4 °F 87% 29.42 in 5.6 mi South 17.3 mph 29.9 mph N/A   Mostly Cloudy
4:50 PM 41.0 °F 33.1 °F 37.4 °F 87% 29.39 in 6.2 mi South 15.0 mph - N/A   Scattered Clouds
5:20 PM 41.0 °F 32.5 °F 37.4 °F 87% 29.36 in 6.2 mi South 17.3 mph 28.8 mph N/A   Scattered Clouds
5:50 PM 41.0 °F 32.5 °F 37.4 °F 87% 29.33 in 6.2 mi South 17.3 mph 28.8 mph N/A   Scattered Clouds
6:20 PM 41.0 °F 32.5 °F 39.2 °F 93% 29.33 in 6.2 mi South 17.3 mph 31.1 mph N/A   Scattered Clouds